This is the latest recevied weather packets stored in our database for station/object EA1AHA-13. If no packets are shown the sender has not sent any weather packets the latest 10 day(s).
| Time | Temp. | Humidity | Pressure | Rain* | Wind** | Luminosity | Snow |
|---|---|---|---|---|---|---|---|
| 1778004989 | 15° C | 74% | 1013.5 hPa | 0 mm | - | - | - |
| 1778004412 | 15° C | 75% | 1013.5 hPa | 0 mm | - | - | - |
| 1778003790 | 14.44° C | 77% | 1013.6 hPa | 0 mm | - | - | - |
| 1778003165 | 14.44° C | 78% | 1013.6 hPa | 0 mm | - | - | - |
| 1778002589 | 14.44° C | 77% | 1013.7 hPa | 0 mm | - | - | - |
| 1778001965 | 14.44° C | 79% | 1013.6 hPa | 0 mm | - | - | - |
| 1778001389 | 14.44° C | 77% | 1013.5 hPa | 0 mm | - | - | - |
| 1778000765 | 15° C | 73% | 1013.4 hPa | 0 mm | - | - | - |
| 1778000189 | 15° C | 72% | 1013.4 hPa | 0 mm | - | - | - |
| 1777999565 | 15.56° C | 74% | 1013.5 hPa | 0 mm | - | - | - |
| 1777998989 | 15.56° C | 73% | 1013.4 hPa | 0 mm | - | - | - |
| 1777998366 | 15° C | 73% | 1013.5 hPa | 0 mm | - | - | - |
| 1777997790 | 15° C | 75% | 1013.6 hPa | 0 mm | - | - | - |
| 1777997164 | 14.44° C | 77% | 1013.3 hPa | 0 mm | - | - | - |
| 1777996589 | 14.44° C | 77% | 1013.3 hPa | 0 mm | - | - | - |
| 1777995965 | 15° C | 75% | 1013.2 hPa | 0 mm | - | - | - |
| 1777995388 | 15° C | 75% | 1013.2 hPa | 0 mm | - | - | - |
| 1777994765 | 15.56° C | 75% | 1013.5 hPa | 0 mm | - | - | - |
| 1777994190 | 15° C | 75% | 1013.4 hPa | 0 mm | - | - | - |
| 1777993565 | 15° C | 76% | 1013.1 hPa | 0 mm | - | - | - |
| 1777992989 | 15° C | 77% | 1013.4 hPa | 0 mm | - | - | - |
| 1777992364 | 15.56° C | 75% | 1013.3 hPa | 0 mm | - | - | - |
| 1777991789 | 15.56° C | 75% | 1013.4 hPa | 0 mm | - | - | - |
| 1777991165 | 16.11° C | 73% | 1013.4 hPa | 0 mm | - | - | - |
| 1777990589 | 15° C | 74% | 1013.5 hPa | 0 mm | - | - | - |
* Rain latest hour (hover to see other rain measurements)
** Current wind speed in m/s (hover to see current wind gust speed)